sat.trackr.live / text

‹ back to catalog

HULIANWANG DIGUI-116

NORAD 66955 · 2025-287C

PAYLOAD ACTIVE UNKNOWN

§ Identity

Operator
Country
PRC
Launch date
2025-12-08
Launch site
TAISC
Launch vehicle
Mass (kg)
RCS (m²)

External: N2YO · Heavens-Above · Gunter

§ Orbital elements

Epoch: 2026-09-20T22:07:30.428544Z

Period
108.73 min
Inclination
86.4844°
Eccentricity
0.0001548
Mean motion
13.24402856 rev/d
Perigee alt
1,166.8 km
Apogee alt
1,169.1 km
Semi-major
7,546.1 km
B*
1.0944e-4
RAAN
249.8597°
Arg perigee
88.1447°
Mean anomaly
271.9864°
Rev number
3,801

§ Raw data

HULIANWANG DIGUI-1161 66955U 25287C   26263.92187996  .00000062  00000+0  10944-3 0  99932 66955  86.4844 249.8597 0001548  88.1447 271.9864 13.24402856 38015

JSON: /api/v1/satellites/66955 · /tle

For live sub-satellite position, see the globe view (requires WebGL).

§ Visibility from observer

Set your observer location to see the next 7 days of passes ≥ 10°. The values pass through the URL so the page stays shareable.

No JS? Fill the form by hand. The geolocation button needs JavaScript.